Tracking 19247 objects as of 22-Sep-2018
HD Live streaming from Space Station
objects crossing your sky now

FENGYUN 1C DEB

Track FENGYUN 1C DEB now!
10-day predictions


NORAD ID: 37064
Int'l Code: 1999-025EEY
Perigee: 834.8 km
Apogee: 1,039.2 km
Inclination: 98.9 °
Period: 103.6 minutes
Semi major axis: 7308 km
RCS: 0.0093 m2 (small)
Launch date: May 10, 1999
Source: People's Republic of China (PRC)
Launch site: Taiyaun Space Center, China (TSC)

Note: This is SATELLITE DEBRIS
aabbcc
Your satellite tracking list
Your tracking list is empty




NASA's NSSDC Master Catalog

Two Line Element Set (TLE):
1 37064U 99025EEY 18261.34152800  .00000890  00000-0  70253-3 0  9993
2 37064  98.9005  95.6014 0139899 182.4502 177.5987 13.89646980461570
Source of the keplerian elements: AFSPC